Year,Month,Day,Hour,Minute,Value (Times are PST for temperature in C)
2011,04,03,00,00,3.70
2011,04,03,00,01,3.70
2011,04,03,00,02,3.70
2011,04,03,00,03,3.70
2011,04,03,00,04,3.70
2011,04,03,00,05,3.70
2011,04,03,00,06,3.60
2011,04,03,00,07,3.60
2011,04,03,00,08,3.60
2011,04,03,00,09,3.60
2011,04,03,00,10,3.60
2011,04,03,00,11,3.50
2011,04,03,00,12,3.50
2011,04,03,00,13,3.50
2011,04,03,00,14,3.50
2011,04,03,00,15,3.40
2011,04,03,00,16,3.40
2011,04,03,00,17,3.40
2011,04,03,00,18,3.30
2011,04,03,00,19,3.30
2011,04,03,00,20,3.30
2011,04,03,00,21,3.30
2011,04,03,00,22,3.40
2011,04,03,00,23,3.40
2011,04,03,00,24,3.30
2011,04,03,00,25,3.30
2011,04,03,00,26,3.30
2011,04,03,00,27,3.30
2011,04,03,00,28,3.30
2011,04,03,00,29,3.30
2011,04,03,00,30,3.30
2011,04,03,00,31,3.30
2011,04,03,00,32,3.30
2011,04,03,00,33,3.30
2011,04,03,00,34,3.30
2011,04,03,00,35,3.30
2011,04,03,00,36,3.30
2011,04,03,00,37,3.30
2011,04,03,00,38,3.30
2011,04,03,00,39,3.30
2011,04,03,00,40,3.40
2011,04,03,00,41,3.40
2011,04,03,00,42,3.40
2011,04,03,00,43,3.30
2011,04,03,00,44,3.30
2011,04,03,00,45,3.30
2011,04,03,00,46,3.30
2011,04,03,00,47,3.30
2011,04,03,00,48,3.30
2011,04,03,00,49,3.30
2011,04,03,00,50,3.30
2011,04,03,00,51,3.30
2011,04,03,00,52,3.30
2011,04,03,00,53,3.30
2011,04,03,00,54,3.20
2011,04,03,00,55,3.20
2011,04,03,00,56,3.20
2011,04,03,00,57,3.20
2011,04,03,00,58,3.20
2011,04,03,00,59,3.20
2011,04,03,01,00,3.20
2011,04,03,01,01,3.10
2011,04,03,01,02,3.10
2011,04,03,01,03,3.00
2011,04,03,01,04,3.00
2011,04,03,01,05,3.00
2011,04,03,01,06,3.00
2011,04,03,01,07,3.00
2011,04,03,01,08,3.00
2011,04,03,01,09,3.00
2011,04,03,01,10,3.00
2011,04,03,01,11,3.00
2011,04,03,01,12,3.00
2011,04,03,01,13,3.00
2011,04,03,01,14,3.00
2011,04,03,01,15,2.90
2011,04,03,01,16,2.90
2011,04,03,01,17,2.90
2011,04,03,01,18,2.90
2011,04,03,01,19,2.90
2011,04,03,01,20,2.90
2011,04,03,01,21,2.90
2011,04,03,01,22,2.90
2011,04,03,01,23,2.90
2011,04,03,01,24,2.90
2011,04,03,01,25,2.90
2011,04,03,01,26,2.90
2011,04,03,01,27,2.90
2011,04,03,01,28,2.80
2011,04,03,01,29,2.80
2011,04,03,01,30,2.80
2011,04,03,01,31,2.80
2011,04,03,01,32,2.80
2011,04,03,01,33,2.80
2011,04,03,01,34,2.80
2011,04,03,01,35,2.80
2011,04,03,01,36,2.80
2011,04,03,01,37,2.80
2011,04,03,01,38,2.80
2011,04,03,01,39,2.80
2011,04,03,01,40,2.80
2011,04,03,01,41,2.70
2011,04,03,01,42,2.70
2011,04,03,01,43,2.70
2011,04,03,01,44,2.70
2011,04,03,01,45,2.70
2011,04,03,01,46,2.70
2011,04,03,01,47,2.70
2011,04,03,01,48,2.80
2011,04,03,01,49,2.80
2011,04,03,01,50,2.80
2011,04,03,01,51,2.80
2011,04,03,01,52,2.80
2011,04,03,01,53,2.80
2011,04,03,01,54,2.80
2011,04,03,01,55,2.80
2011,04,03,01,56,2.80
2011,04,03,01,57,2.80
2011,04,03,01,58,2.80
2011,04,03,01,59,2.80
2011,04,03,02,00,2.80
2011,04,03,02,01,2.70
2011,04,03,02,02,2.70
2011,04,03,02,03,2.70
2011,04,03,02,04,2.70
2011,04,03,02,05,2.70
2011,04,03,02,06,2.70
2011,04,03,02,07,2.70
2011,04,03,02,08,2.70
2011,04,03,02,09,2.70
2011,04,03,02,10,2.60
2011,04,03,02,11,2.60
2011,04,03,02,12,2.70
2011,04,03,02,13,2.70
2011,04,03,02,14,2.70
2011,04,03,02,15,2.70
2011,04,03,02,16,2.70
2011,04,03,02,17,2.70
2011,04,03,02,18,2.70
2011,04,03,02,19,2.70
2011,04,03,02,20,2.70
2011,04,03,02,21,2.70
2011,04,03,02,22,2.70
2011,04,03,02,23,2.70
2011,04,03,02,24,2.70
2011,04,03,02,25,2.80
2011,04,03,02,26,2.80
2011,04,03,02,27,2.80
2011,04,03,02,28,2.80
2011,04,03,02,29,2.80
2011,04,03,02,30,2.90
2011,04,03,02,31,2.90
2011,04,03,02,32,2.90
2011,04,03,02,33,2.90
2011,04,03,02,34,2.90
2011,04,03,02,35,2.90
2011,04,03,02,36,2.90
2011,04,03,02,37,2.90
2011,04,03,02,38,2.90
2011,04,03,02,39,2.90
2011,04,03,02,40,2.90
2011,04,03,02,41,2.90
2011,04,03,02,42,2.90
2011,04,03,02,43,2.90
2011,04,03,02,44,2.90
2011,04,03,02,45,2.90
2011,04,03,02,46,2.90
2011,04,03,02,47,2.90
2011,04,03,02,48,2.90
2011,04,03,02,49,2.90
2011,04,03,02,50,2.90
2011,04,03,02,51,2.90
2011,04,03,02,52,2.90
2011,04,03,02,53,2.90
2011,04,03,02,54,2.90
2011,04,03,02,55,2.90
2011,04,03,02,56,2.90
2011,04,03,02,57,2.90
2011,04,03,02,58,2.90
2011,04,03,02,59,2.90
2011,04,03,03,00,2.90
2011,04,03,03,01,2.90
2011,04,03,03,02,2.90
2011,04,03,03,03,2.90
2011,04,03,03,04,2.90
2011,04,03,03,05,2.90
2011,04,03,03,06,2.90
2011,04,03,03,07,2.90
2011,04,03,03,08,3.00
2011,04,03,03,09,3.00
2011,04,03,03,10,3.00
2011,04,03,03,11,3.00
2011,04,03,03,12,3.00
2011,04,03,03,13,3.00
2011,04,03,03,14,3.00
2011,04,03,03,15,3.00
2011,04,03,03,16,3.00
2011,04,03,03,17,3.00
2011,04,03,03,18,3.00
2011,04,03,03,19,3.00
2011,04,03,03,20,3.00
2011,04,03,03,21,3.00
2011,04,03,03,22,3.00
2011,04,03,03,23,3.00
2011,04,03,03,24,3.00
2011,04,03,03,25,3.00
2011,04,03,03,26,3.00
2011,04,03,03,27,3.00
2011,04,03,03,28,3.00
2011,04,03,03,29,3.00
2011,04,03,03,30,2.90
2011,04,03,03,31,2.90
2011,04,03,03,32,3.00
2011,04,03,03,33,3.00
2011,04,03,03,34,3.00
2011,04,03,03,35,3.10
2011,04,03,03,36,3.10
2011,04,03,03,37,3.10
2011,04,03,03,38,3.10
2011,04,03,03,39,3.10
2011,04,03,03,40,3.00
2011,04,03,03,41,3.00
2011,04,03,03,42,3.00
2011,04,03,03,43,3.00
2011,04,03,03,44,3.00
2011,04,03,03,45,3.00
2011,04,03,03,46,2.90
2011,04,03,03,47,2.90
2011,04,03,03,48,2.90
2011,04,03,03,49,2.90
2011,04,03,03,50,2.90
2011,04,03,03,51,2.90
2011,04,03,03,52,2.90
2011,04,03,03,53,2.90
2011,04,03,03,54,2.80
2011,04,03,03,55,2.80
2011,04,03,03,56,2.80
2011,04,03,03,57,2.80
2011,04,03,03,58,2.80
2011,04,03,03,59,2.80
2011,04,03,04,00,2.80
2011,04,03,04,01,2.80
2011,04,03,04,02,2.80
2011,04,03,04,03,2.90
2011,04,03,04,04,2.90
2011,04,03,04,05,2.90
2011,04,03,04,06,2.90
2011,04,03,04,07,3.00
2011,04,03,04,08,3.00
2011,04,03,04,09,3.00
2011,04,03,04,10,3.00
2011,04,03,04,11,3.00
2011,04,03,04,12,3.00
2011,04,03,04,13,3.10
2011,04,03,04,14,3.10
2011,04,03,04,15,3.00
2011,04,03,04,16,3.00
2011,04,03,04,17,3.00
2011,04,03,04,18,3.00
2011,04,03,04,19,3.00
2011,04,03,04,20,3.00
2011,04,03,04,21,3.00
2011,04,03,04,22,3.00
2011,04,03,04,23,3.00
2011,04,03,04,24,3.00
2011,04,03,04,25,3.00
2011,04,03,04,26,3.00
2011,04,03,04,27,2.90
2011,04,03,04,28,2.90
2011,04,03,04,29,2.90
2011,04,03,04,30,2.90
2011,04,03,04,31,2.90
2011,04,03,04,32,2.90
2011,04,03,04,33,2.90
2011,04,03,04,34,2.80
2011,04,03,04,35,2.80
2011,04,03,04,36,2.90
2011,04,03,04,37,2.90
2011,04,03,04,38,2.90
2011,04,03,04,39,2.90
2011,04,03,04,40,3.00
2011,04,03,04,41,3.00
2011,04,03,04,42,3.00
2011,04,03,04,43,3.00
2011,04,03,04,44,3.00
2011,04,03,04,45,2.90
2011,04,03,04,46,2.90
2011,04,03,04,47,2.90
2011,04,03,04,48,2.90
2011,04,03,04,49,2.90
2011,04,03,04,50,2.80
2011,04,03,04,51,2.80
2011,04,03,04,52,2.80
2011,04,03,04,53,2.80
2011,04,03,04,54,2.80
2011,04,03,04,55,2.80
2011,04,03,04,56,2.80
2011,04,03,04,57,2.70
2011,04,03,04,58,2.70
2011,04,03,04,59,2.70
2011,04,03,05,00,2.70
2011,04,03,05,01,2.70
2011,04,03,05,02,2.70
2011,04,03,05,03,2.70
2011,04,03,05,04,2.70
2011,04,03,05,05,2.70
2011,04,03,05,06,2.70
2011,04,03,05,07,2.70
2011,04,03,05,08,2.70
2011,04,03,05,09,2.60
2011,04,03,05,10,2.60
2011,04,03,05,11,2.60
2011,04,03,05,12,2.60
2011,04,03,05,13,2.60
2011,04,03,05,14,2.60
2011,04,03,05,15,2.60
2011,04,03,05,16,2.60
2011,04,03,05,17,2.60
2011,04,03,05,18,2.60
2011,04,03,05,19,2.50
2011,04,03,05,20,2.50
2011,04,03,05,21,2.50
2011,04,03,05,22,2.40
2011,04,03,05,23,2.40
2011,04,03,05,24,2.40
2011,04,03,05,25,2.40
2011,04,03,05,26,2.40
2011,04,03,05,27,2.40
2011,04,03,05,28,2.40
2011,04,03,05,29,2.30
2011,04,03,05,30,2.30
2011,04,03,05,31,2.30
2011,04,03,05,32,2.30
2011,04,03,05,33,2.30
2011,04,03,05,34,2.30
2011,04,03,05,35,2.20
2011,04,03,05,36,2.20
2011,04,03,05,37,2.20
2011,04,03,05,38,2.20
2011,04,03,05,39,2.20
2011,04,03,05,40,2.10
2011,04,03,05,41,2.10
2011,04,03,05,42,2.10
2011,04,03,05,43,2.10
2011,04,03,05,44,2.10
2011,04,03,05,45,2.10
2011,04,03,05,46,2.00
2011,04,03,05,47,2.00
2011,04,03,05,48,2.00
2011,04,03,05,49,1.90
2011,04,03,05,50,1.90
2011,04,03,05,51,1.90
2011,04,03,05,52,1.90
2011,04,03,05,53,1.80
2011,04,03,05,54,1.80
2011,04,03,05,55,1.80
2011,04,03,05,56,1.80
2011,04,03,05,57,1.80
2011,04,03,05,58,1.80
2011,04,03,05,59,1.80
2011,04,03,06,00,1.80
2011,04,03,06,01,1.80
2011,04,03,06,02,1.80
2011,04,03,06,03,1.80
2011,04,03,06,04,1.90
2011,04,03,06,05,1.90
2011,04,03,06,06,1.90
2011,04,03,06,07,1.90
2011,04,03,06,08,1.90
2011,04,03,06,09,1.90
2011,04,03,06,10,1.90
2011,04,03,06,11,1.90
2011,04,03,06,12,1.90
2011,04,03,06,13,1.90
2011,04,03,06,14,1.90
2011,04,03,06,15,1.80
2011,04,03,06,16,1.80
2011,04,03,06,17,1.80
2011,04,03,06,18,1.80
2011,04,03,06,19,1.80
2011,04,03,06,20,1.80
2011,04,03,06,21,1.80
2011,04,03,06,22,1.90
2011,04,03,06,23,1.90
2011,04,03,06,24,1.90
2011,04,03,06,25,1.90
2011,04,03,06,26,1.90
2011,04,03,06,27,1.90
2011,04,03,06,28,1.90
2011,04,03,06,29,1.90
2011,04,03,06,30,1.90
2011,04,03,06,31,1.90
2011,04,03,06,32,2.00
2011,04,03,06,33,2.00
2011,04,03,06,34,2.10
2011,04,03,06,35,2.10
2011,04,03,06,36,2.10
2011,04,03,06,37,2.10
2011,04,03,06,38,2.10
2011,04,03,06,39,2.10
2011,04,03,06,40,2.10
2011,04,03,06,41,2.10
2011,04,03,06,42,2.10
2011,04,03,06,43,2.10
2011,04,03,06,44,2.10
2011,04,03,06,45,2.10
2011,04,03,06,46,2.10
2011,04,03,06,47,2.00
2011,04,03,06,48,2.00
2011,04,03,06,49,2.00
2011,04,03,06,50,2.00
2011,04,03,06,51,2.00
2011,04,03,06,52,2.00
2011,04,03,06,53,2.00
2011,04,03,06,54,2.00
2011,04,03,06,55,2.00
2011,04,03,06,56,1.90
2011,04,03,06,57,1.90
2011,04,03,06,58,1.90
2011,04,03,06,59,1.90
2011,04,03,07,00,1.90
2011,04,03,07,01,1.90
2011,04,03,07,02,1.90
2011,04,03,07,03,1.90
2011,04,03,07,04,1.90
2011,04,03,07,05,1.90
2011,04,03,07,06,1.90
2011,04,03,07,07,2.00
2011,04,03,07,08,2.00
2011,04,03,07,09,2.00
2011,04,03,07,10,2.00
2011,04,03,07,11,2.00
2011,04,03,07,12,2.10
2011,04,03,07,13,2.10
2011,04,03,07,14,2.10
2011,04,03,07,15,2.10
2011,04,03,07,16,2.00
2011,04,03,07,17,2.10
2011,04,03,07,18,2.00
2011,04,03,07,19,2.00
2011,04,03,07,20,2.00
2011,04,03,07,21,2.00
2011,04,03,07,22,2.00
2011,04,03,07,23,2.10
2011,04,03,07,24,2.10
2011,04,03,07,25,2.10
2011,04,03,07,26,2.10
2011,04,03,07,27,2.20
2011,04,03,07,28,2.20
2011,04,03,07,29,2.20
2011,04,03,07,30,2.20
2011,04,03,07,31,2.20
2011,04,03,07,32,2.20
2011,04,03,07,33,2.30
2011,04,03,07,34,2.30
2011,04,03,07,35,2.30
2011,04,03,07,36,2.30
2011,04,03,07,37,2.30
2011,04,03,07,38,2.30
2011,04,03,07,39,2.30
2011,04,03,07,40,2.30
2011,04,03,07,41,2.30
2011,04,03,07,42,2.30
2011,04,03,07,43,2.40
2011,04,03,07,44,2.40
2011,04,03,07,45,2.40
2011,04,03,07,46,2.40
2011,04,03,07,47,2.40
2011,04,03,07,48,2.50
2011,04,03,07,49,2.50
2011,04,03,07,50,2.50
2011,04,03,07,51,2.50
2011,04,03,07,52,2.60
2011,04,03,07,53,2.60
2011,04,03,07,54,2.70
2011,04,03,07,55,2.70
2011,04,03,07,56,2.80
2011,04,03,07,57,2.90
2011,04,03,07,58,3.00
2011,04,03,07,59,3.20
2011,04,03,08,00,3.30
2011,04,03,08,01,3.40
2011,04,03,08,02,3.40
2011,04,03,08,03,3.40
2011,04,03,08,04,3.50
2011,04,03,08,05,3.50
2011,04,03,08,06,3.60
2011,04,03,08,07,3.60
2011,04,03,08,08,3.60
2011,04,03,08,09,3.70
2011,04,03,08,10,3.70
2011,04,03,08,11,3.70
2011,04,03,08,12,3.80
2011,04,03,08,13,3.80
2011,04,03,08,14,3.90
2011,04,03,08,15,3.90
2011,04,03,08,16,4.00
2011,04,03,08,17,4.00
2011,04,03,08,18,4.10
2011,04,03,08,19,4.10
2011,04,03,08,20,4.20
2011,04,03,08,21,4.20
2011,04,03,08,22,4.30
2011,04,03,08,23,4.40
2011,04,03,08,24,4.40
2011,04,03,08,25,4.50
2011,04,03,08,26,4.60
2011,04,03,08,27,4.60
2011,04,03,08,28,4.70
2011,04,03,08,29,4.70
2011,04,03,08,30,4.80
2011,04,03,08,31,4.80
2011,04,03,08,32,4.90
2011,04,03,08,33,5.00
2011,04,03,08,34,5.00
2011,04,03,08,35,5.10
2011,04,03,08,36,5.20
2011,04,03,08,37,5.30
2011,04,03,08,38,5.40
2011,04,03,08,39,5.40
2011,04,03,08,40,5.50
2011,04,03,08,41,5.60
2011,04,03,08,42,5.60
2011,04,03,08,43,5.70
2011,04,03,08,44,5.70
2011,04,03,08,45,5.80
2011,04,03,08,46,5.80
2011,04,03,08,47,5.90
2011,04,03,08,48,5.90
2011,04,03,08,49,6.00
2011,04,03,08,50,6.10
2011,04,03,08,51,6.10
2011,04,03,08,52,6.10
2011,04,03,08,53,6.20
2011,04,03,08,54,6.20
2011,04,03,08,55,6.30
2011,04,03,08,56,6.30
2011,04,03,08,57,6.30
2011,04,03,08,58,6.30
2011,04,03,08,59,6.30
2011,04,03,09,00,6.30
2011,04,03,09,01,6.40
2011,04,03,09,02,6.40
2011,04,03,09,03,6.40
2011,04,03,09,04,6.40
2011,04,03,09,05,6.50
2011,04,03,09,06,6.50
2011,04,03,09,07,6.50
2011,04,03,09,08,6.60
2011,04,03,09,09,6.60
2011,04,03,09,10,6.60
2011,04,03,09,11,6.60
2011,04,03,09,12,6.70
2011,04,03,09,13,6.70
2011,04,03,09,14,6.70
2011,04,03,09,15,6.80
2011,04,03,09,16,6.80
2011,04,03,09,17,6.80
2011,04,03,09,18,6.80
2011,04,03,09,19,6.80
2011,04,03,09,20,6.90
2011,04,03,09,21,6.90
2011,04,03,09,22,6.90
2011,04,03,09,23,6.90
2011,04,03,09,24,7.00
2011,04,03,09,25,7.00
2011,04,03,09,26,7.00
2011,04,03,09,27,7.10
2011,04,03,09,28,7.10
2011,04,03,09,29,7.10
2011,04,03,09,30,7.20
2011,04,03,09,31,7.20
2011,04,03,09,32,7.20
2011,04,03,09,33,7.20
2011,04,03,09,34,7.20
2011,04,03,09,35,7.20
2011,04,03,09,36,7.20
2011,04,03,09,37,7.30
2011,04,03,09,38,7.30
2011,04,03,09,39,7.30
2011,04,03,09,40,7.30
2011,04,03,09,41,7.40
2011,04,03,09,42,7.40
2011,04,03,09,43,7.40
2011,04,03,09,44,7.40
2011,04,03,09,45,7.50
2011,04,03,09,46,7.50
2011,04,03,09,47,7.50
2011,04,03,09,48,7.50
2011,04,03,09,49,7.50
2011,04,03,09,50,7.60
2011,04,03,09,51,7.60
2011,04,03,09,52,7.60
2011,04,03,09,53,7.60
2011,04,03,09,54,7.70
2011,04,03,09,55,7.70
2011,04,03,09,56,7.70
2011,04,03,09,57,7.80
2011,04,03,09,58,7.80
2011,04,03,09,59,7.80
2011,04,03,10,00,7.80
2011,04,03,10,01,7.80
2011,04,03,10,02,7.90
2011,04,03,10,03,7.90
2011,04,03,10,04,7.90
2011,04,03,10,05,8.00
2011,04,03,10,06,8.00
2011,04,03,10,07,8.00
2011,04,03,10,08,8.10
2011,04,03,10,09,8.10
2011,04,03,10,10,8.10
2011,04,03,10,11,8.10
2011,04,03,10,12,8.10
2011,04,03,10,13,8.10
2011,04,03,10,14,8.10
2011,04,03,10,15,8.10
2011,04,03,10,16,8.10
2011,04,03,10,17,8.20
2011,04,03,10,18,8.20
2011,04,03,10,19,8.20
2011,04,03,10,20,8.20
2011,04,03,10,21,8.30
2011,04,03,10,22,8.30
2011,04,03,10,23,8.30
2011,04,03,10,24,8.30
2011,04,03,10,25,8.30
2011,04,03,10,26,8.30
2011,04,03,10,27,8.30
2011,04,03,10,28,8.30
2011,04,03,10,29,8.40
2011,04,03,10,30,8.40
2011,04,03,10,31,8.40
2011,04,03,10,32,8.40
2011,04,03,10,33,8.40
2011,04,03,10,34,8.40
2011,04,03,10,35,8.40
2011,04,03,10,36,8.40
2011,04,03,10,37,8.40
2011,04,03,10,38,8.40
2011,04,03,10,39,8.40
2011,04,03,10,40,8.50
2011,04,03,10,41,8.50
2011,04,03,10,42,8.50
2011,04,03,10,43,8.50
2011,04,03,10,44,8.50
2011,04,03,10,45,8.50
2011,04,03,10,46,8.60
2011,04,03,10,47,8.60
2011,04,03,10,48,8.60
2011,04,03,10,49,8.60
2011,04,03,10,50,8.50
2011,04,03,10,51,8.50
2011,04,03,10,52,8.50
2011,04,03,10,53,8.50
2011,04,03,10,54,8.50
2011,04,03,10,55,8.50
2011,04,03,10,56,8.60
2011,04,03,10,57,8.60
2011,04,03,10,58,8.60
2011,04,03,10,59,8.60
2011,04,03,11,00,8.70
2011,04,03,11,01,8.70
2011,04,03,11,02,8.70
2011,04,03,11,03,8.70
2011,04,03,11,04,8.70
2011,04,03,11,05,8.70
2011,04,03,11,06,8.70
2011,04,03,11,07,8.60
2011,04,03,11,08,8.60
2011,04,03,11,09,8.60
2011,04,03,11,10,8.60
2011,04,03,11,11,8.60
2011,04,03,11,12,8.60
2011,04,03,11,13,8.70
2011,04,03,11,14,8.70
2011,04,03,11,15,8.60
2011,04,03,11,16,8.70
2011,04,03,11,17,8.70
2011,04,03,11,18,8.70
2011,04,03,11,19,8.70
2011,04,03,11,20,8.70
2011,04,03,11,21,8.80
2011,04,03,11,22,8.80
2011,04,03,11,23,8.80
2011,04,03,11,24,8.90
2011,04,03,11,25,9.00
2011,04,03,11,26,9.00
2011,04,03,11,27,9.10
2011,04,03,11,28,9.10
2011,04,03,11,29,9.20
2011,04,03,11,30,9.20
2011,04,03,11,31,9.20
2011,04,03,11,32,9.30
2011,04,03,11,33,9.30
2011,04,03,11,34,9.30
2011,04,03,11,35,9.30
2011,04,03,11,36,9.30
2011,04,03,11,37,9.20
2011,04,03,11,38,9.20
2011,04,03,11,39,9.20
2011,04,03,11,40,9.20
2011,04,03,11,41,9.20
2011,04,03,11,42,9.20
2011,04,03,11,43,9.20
2011,04,03,11,44,9.20
2011,04,03,11,45,9.20
2011,04,03,11,46,9.20
2011,04,03,11,47,9.20
2011,04,03,11,48,9.20
2011,04,03,11,49,9.10
2011,04,03,11,50,9.10
2011,04,03,11,51,9.00
2011,04,03,11,52,9.00
2011,04,03,11,53,8.90
2011,04,03,11,54,8.90
2011,04,03,11,55,8.90
2011,04,03,11,56,8.90
2011,04,03,11,57,8.90
2011,04,03,11,58,8.90
2011,04,03,11,59,8.90
2011,04,03,12,00,8.90
2011,04,03,12,01,8.90
2011,04,03,12,02,8.90
2011,04,03,12,03,9.00
2011,04,03,12,04,9.00
2011,04,03,12,05,8.90
2011,04,03,12,06,8.90
2011,04,03,12,07,9.00
2011,04,03,12,08,8.90
2011,04,03,12,09,8.90
2011,04,03,12,10,8.90
2011,04,03,12,11,8.90
2011,04,03,12,12,9.00
2011,04,03,12,13,9.00
2011,04,03,12,14,9.00
2011,04,03,12,15,9.00
2011,04,03,12,16,9.00
2011,04,03,12,17,9.00
2011,04,03,12,18,9.00
2011,04,03,12,19,9.00
2011,04,03,12,20,8.90
2011,04,03,12,21,8.90
2011,04,03,12,22,9.00
2011,04,03,12,23,8.90
2011,04,03,12,24,8.90
2011,04,03,12,25,8.90
2011,04,03,12,26,8.80
2011,04,03,12,27,8.80
2011,04,03,12,28,8.80
2011,04,03,12,29,8.80
2011,04,03,12,30,8.70
2011,04,03,12,31,8.70
2011,04,03,12,32,8.70
2011,04,03,12,33,8.80
2011,04,03,12,34,8.70
2011,04,03,12,35,8.70
2011,04,03,12,36,8.70
2011,04,03,12,37,8.80
2011,04,03,12,38,8.70
2011,04,03,12,39,8.70
2011,04,03,12,40,8.70
2011,04,03,12,41,8.70
2011,04,03,12,42,8.70
2011,04,03,12,43,8.70
2011,04,03,12,44,8.70
2011,04,03,12,45,8.70
2011,04,03,12,46,8.70
2011,04,03,12,47,8.70
2011,04,03,12,48,8.70
2011,04,03,12,49,8.70
2011,04,03,12,50,8.70
2011,04,03,12,51,8.70
2011,04,03,12,52,8.70
2011,04,03,12,53,8.70
2011,04,03,12,54,8.80
2011,04,03,12,55,8.70
2011,04,03,12,56,8.70
2011,04,03,12,57,8.70
2011,04,03,12,58,8.70
2011,04,03,12,59,8.70
2011,04,03,13,00,8.70
2011,04,03,13,01,8.70
2011,04,03,13,02,8.70
2011,04,03,13,03,8.70
2011,04,03,13,04,8.70
2011,04,03,13,05,8.70
2011,04,03,13,06,8.70
2011,04,03,13,07,8.70
2011,04,03,13,08,8.70
2011,04,03,13,09,8.70
2011,04,03,13,10,8.80
2011,04,03,13,11,8.80
2011,04,03,13,12,8.80
2011,04,03,13,13,8.80
2011,04,03,13,14,8.80
2011,04,03,13,15,8.80
2011,04,03,13,16,8.80
2011,04,03,13,17,8.90
2011,04,03,13,18,8.90
2011,04,03,13,19,8.90
2011,04,03,13,20,8.90
2011,04,03,13,21,9.00
2011,04,03,13,22,8.90
2011,04,03,13,23,8.90
2011,04,03,13,24,8.90
2011,04,03,13,25,8.80
2011,04,03,13,26,8.80
2011,04,03,13,27,8.80
2011,04,03,13,28,8.80
2011,04,03,13,29,8.80
2011,04,03,13,30,8.80
2011,04,03,13,31,8.80
2011,04,03,13,32,8.90
2011,04,03,13,33,8.90
2011,04,03,13,34,8.90
2011,04,03,13,35,8.90
2011,04,03,13,36,8.80
2011,04,03,13,37,8.80
2011,04,03,13,38,8.80
2011,04,03,13,39,8.80
2011,04,03,13,40,8.80
2011,04,03,13,41,8.80
2011,04,03,13,42,8.80
2011,04,03,13,43,8.80
2011,04,03,13,44,8.80
2011,04,03,13,45,8.80
2011,04,03,13,46,8.70
2011,04,03,13,47,8.60
2011,04,03,13,48,8.60
2011,04,03,13,49,8.60
2011,04,03,13,50,8.70
2011,04,03,13,51,8.70
2011,04,03,13,52,8.60
2011,04,03,13,53,8.60
2011,04,03,13,54,8.60
2011,04,03,13,55,8.60
2011,04,03,13,56,8.60
2011,04,03,13,57,8.60
2011,04,03,13,58,8.60
2011,04,03,13,59,8.60
2011,04,03,14,00,8.70
2011,04,03,14,01,8.70
2011,04,03,14,02,8.70
2011,04,03,14,03,8.70
2011,04,03,14,04,8.70
2011,04,03,14,05,8.70
2011,04,03,14,06,8.70
2011,04,03,14,07,8.80
2011,04,03,14,08,8.80
2011,04,03,14,09,8.80
2011,04,03,14,10,8.70
2011,04,03,14,11,8.70
2011,04,03,14,12,8.60
2011,04,03,14,13,8.60
2011,04,03,14,14,8.60
2011,04,03,14,15,8.60
2011,04,03,14,16,8.60
2011,04,03,14,17,8.50
2011,04,03,14,18,8.50
2011,04,03,14,19,8.40
2011,04,03,14,20,8.30
2011,04,03,14,21,8.20
2011,04,03,14,22,8.10
2011,04,03,14,23,8.10
2011,04,03,14,24,8.00
2011,04,03,14,25,8.00
2011,04,03,14,26,7.90
2011,04,03,14,27,7.80
2011,04,03,14,28,7.80
2011,04,03,14,29,7.80
2011,04,03,14,30,7.80
2011,04,03,14,31,7.70
2011,04,03,14,32,7.70
2011,04,03,14,33,7.70
2011,04,03,14,34,7.70
2011,04,03,14,35,7.70
2011,04,03,14,36,7.70
2011,04,03,14,37,7.70
2011,04,03,14,38,7.70
2011,04,03,14,39,7.70
2011,04,03,14,40,7.80
2011,04,03,14,41,7.70
2011,04,03,14,42,7.70
2011,04,03,14,43,7.70
2011,04,03,14,44,7.70
2011,04,03,14,45,7.80
2011,04,03,14,46,7.80
2011,04,03,14,47,7.80
2011,04,03,14,48,7.80
2011,04,03,14,49,7.80
2011,04,03,14,50,7.80
2011,04,03,14,51,7.80
2011,04,03,14,52,7.80
2011,04,03,14,53,7.90
2011,04,03,14,54,7.90
2011,04,03,14,55,7.90
2011,04,03,14,56,8.00
2011,04,03,14,57,8.00
2011,04,03,14,58,8.10
2011,04,03,14,59,8.10
2011,04,03,15,00,8.10
2011,04,03,15,01,8.20
2011,04,03,15,02,8.20
2011,04,03,15,03,8.30
2011,04,03,15,04,8.30
2011,04,03,15,05,8.40
2011,04,03,15,06,8.40
2011,04,03,15,07,8.50
2011,04,03,15,08,8.50
2011,04,03,15,09,8.60
2011,04,03,15,10,8.60
2011,04,03,15,11,8.70
2011,04,03,15,12,8.80
2011,04,03,15,13,8.80
2011,04,03,15,14,8.90
2011,04,03,15,15,8.90
2011,04,03,15,16,8.90
2011,04,03,15,17,8.90
2011,04,03,15,18,8.90
2011,04,03,15,19,9.00
2011,04,03,15,20,9.00
2011,04,03,15,21,9.00
2011,04,03,15,22,9.00
2011,04,03,15,23,9.00
2011,04,03,15,24,9.10
2011,04,03,15,25,9.10
2011,04,03,15,26,9.10
2011,04,03,15,27,9.10
2011,04,03,15,28,9.10
2011,04,03,15,29,9.10
2011,04,03,15,30,9.10
2011,04,03,15,31,9.10
2011,04,03,15,32,9.10
2011,04,03,15,33,9.10
2011,04,03,15,34,9.10
2011,04,03,15,35,9.10
2011,04,03,15,36,9.10
2011,04,03,15,37,9.10
2011,04,03,15,38,9.10
2011,04,03,15,39,9.10
2011,04,03,15,40,9.10
2011,04,03,15,41,9.10
2011,04,03,15,42,9.10
2011,04,03,15,43,9.20
2011,04,03,15,44,9.20
2011,04,03,15,45,9.20
2011,04,03,15,46,9.10
2011,04,03,15,47,9.10
2011,04,03,15,48,9.10
2011,04,03,15,49,9.10
2011,04,03,15,50,9.10
2011,04,03,15,51,9.10
2011,04,03,15,52,9.10
2011,04,03,15,53,9.10
2011,04,03,15,54,9.10
2011,04,03,15,55,9.10
2011,04,03,15,56,9.10
2011,04,03,15,57,9.00
2011,04,03,15,58,9.00
2011,04,03,15,59,9.00
2011,04,03,16,00,8.90
2011,04,03,16,01,8.90
2011,04,03,16,02,8.90
2011,04,03,16,03,8.90
2011,04,03,16,04,8.90
2011,04,03,16,05,8.90
2011,04,03,16,06,8.90
2011,04,03,16,07,8.90
2011,04,03,16,08,8.90
2011,04,03,16,09,8.90
2011,04,03,16,10,8.90
2011,04,03,16,11,8.90
2011,04,03,16,12,8.90
2011,04,03,16,13,8.80
2011,04,03,16,14,8.80
2011,04,03,16,15,8.80
2011,04,03,16,16,8.70
2011,04,03,16,17,8.70
2011,04,03,16,18,8.70
2011,04,03,16,19,8.70
2011,04,03,16,20,8.70
2011,04,03,16,21,8.70
2011,04,03,16,22,8.70
2011,04,03,16,23,8.70
2011,04,03,16,24,8.70
2011,04,03,16,25,8.60
2011,04,03,16,26,8.60
2011,04,03,16,27,8.60
2011,04,03,16,28,8.60
2011,04,03,16,29,8.60
2011,04,03,16,30,8.60
2011,04,03,16,31,8.50
2011,04,03,16,32,8.50
2011,04,03,16,33,8.50
2011,04,03,16,34,8.40
2011,04,03,16,35,8.40
2011,04,03,16,36,8.40
2011,04,03,16,37,8.40
2011,04,03,16,38,8.40
2011,04,03,16,39,8.40
2011,04,03,16,40,8.40
2011,04,03,16,41,8.40
2011,04,03,16,42,8.40
2011,04,03,16,43,8.40
2011,04,03,16,44,8.50
2011,04,03,16,45,8.50
2011,04,03,16,46,8.50
2011,04,03,16,47,8.50
2011,04,03,16,48,8.50
2011,04,03,16,49,8.50
2011,04,03,16,50,8.50
2011,04,03,16,51,8.50
2011,04,03,16,52,8.50
2011,04,03,16,53,8.50
2011,04,03,16,54,8.50
2011,04,03,16,55,8.50
2011,04,03,16,56,8.50
2011,04,03,16,57,8.50
2011,04,03,16,58,8.50
2011,04,03,16,59,8.50
2011,04,03,17,00,8.50
2011,04,03,17,01,8.50
2011,04,03,17,02,8.50
2011,04,03,17,03,8.50
2011,04,03,17,04,8.40
2011,04,03,17,05,8.40
2011,04,03,17,06,8.40
2011,04,03,17,07,8.40
2011,04,03,17,08,8.40
2011,04,03,17,09,8.40
2011,04,03,17,10,8.40
2011,04,03,17,11,8.40
2011,04,03,17,12,8.30
2011,04,03,17,13,8.30
2011,04,03,17,14,8.30
2011,04,03,17,15,8.30
2011,04,03,17,16,8.30
2011,04,03,17,17,8.30
2011,04,03,17,18,8.30
2011,04,03,17,19,8.20
2011,04,03,17,20,8.20
2011,04,03,17,21,8.20
2011,04,03,17,22,8.20
2011,04,03,17,23,8.20
2011,04,03,17,24,8.20
2011,04,03,17,25,8.20
2011,04,03,17,26,8.20
2011,04,03,17,27,8.10
2011,04,03,17,28,8.10
2011,04,03,17,29,8.10
2011,04,03,17,30,8.10
2011,04,03,17,31,8.10
2011,04,03,17,32,8.10
2011,04,03,17,33,8.10
2011,04,03,17,34,8.10
2011,04,03,17,35,8.10
2011,04,03,17,36,8.10
2011,04,03,17,37,8.10
2011,04,03,17,38,8.10
2011,04,03,17,39,8.00
2011,04,03,17,40,7.90
2011,04,03,17,41,7.90
2011,04,03,17,42,7.90
2011,04,03,17,43,7.80
2011,04,03,17,44,7.80
2011,04,03,17,45,7.80
2011,04,03,17,46,7.70
2011,04,03,17,47,7.70
2011,04,03,17,48,7.70
2011,04,03,17,49,7.60
2011,04,03,17,50,7.60
2011,04,03,17,51,7.60
2011,04,03,17,52,7.60
2011,04,03,17,53,7.50
2011,04,03,17,54,7.40
2011,04,03,17,55,7.40
2011,04,03,17,56,7.30
2011,04,03,17,57,7.20
2011,04,03,17,58,7.10
2011,04,03,17,59,7.00
2011,04,03,18,00,6.90
2011,04,03,18,01,6.90
2011,04,03,18,02,6.80
2011,04,03,18,03,6.80
2011,04,03,18,04,6.70
2011,04,03,18,05,6.70
2011,04,03,18,06,6.70